Home   Weather   Førde   Past weeks

Flag for Norway Past Weather in Førde, Norway — Yesterday and Last 2 Weeks

Now
43 °F

Drizzle. Fog.


Feels Like: 39 °F
Forecast: 38 / 39 °F
Wind: 6 mph from West

Location: Forde / Bringeland

Current Time: Jan 19, 2017 at 4:14:36 pm

Latest Report: Jan 19, 2017 at 3:20 pm


Visibility: 2 mi

Pressure: 30.24 "Hg

Humidity: 100%

Dew Point: 43 °F

Location of FørdeLocation

Past Weather in Førde — Graph

°F

Førde Temperature Yesterday

Maximum temperature yesterday: 41 °F (at 11:50 am)
Minimum temperature yesterday: 39 °F (at 5:50 am)
Average temperature yesterday: 39 °F

High & Low Weather Summary for the Past Weeks

 TemperatureHumidityPressure
High43 °F (Jan 9, 1:50 pm)100% (Jan 6, 7:50 am)30.51 "Hg (Jan 6, 7:50 am)
Low12 °F (Jan 16, 5:50 am)54% (Jan 5, 10:20 pm)28.59 "Hg (Jan 11, 9:50 am)
Average31 °F89%29.79 "Hg
* Reported Jan 4 2:20 pm — Jan 19 2:50 pm, Førde, Weather by CustomWeather, © 2017

Note: Actual official high and low records may vary slightly from our data, if they occured in-between our weather recording intervals... More about our weather records

Advertising

Førde Weather History for the Previous 24 Hours

Scroll right to see more
 ConditionsComfort  
Time TempWeatherWind HumidityBarometerVisibility
2:50 pm
Thu, Jan 19
43 °FDrizzle. Fog.6 mph100%30.24 "Hg1 mi
2:20 pm43 °FDrizzle. Fog.8 mph100%30.24 "Hg1 mi
1:50 pm43 °FDrizzle. Fog.9 mph100%30.24 "Hg1 mi
1:20 pm43 °FDrizzle. Fog.9 mph100%30.24 "Hg1 mi
12:50 pm43 °FDrizzle. Fog.9 mph100%30.24 "Hg1 mi
12:20 pm43 °FDrizzle. Fog.9 mph100%30.24 "Hg1 mi
11:50 am43 °FDrizzle. Fog.16 mph100%30.24 "Hg1 mi
11:20 am43 °FDrizzle. Fog.16 mph100%30.24 "Hg1 mi
10:50 am43 °FDrizzle. Fog.15 mph93%30.24 "Hg1 mi
10:20 am43 °FSleet. Fog.9 mph93%30.24 "Hg1 mi
9:50 am43 °FDrizzle. Fog.12 mph93%30.21 "Hg1 mi
8:50 am43 °FDrizzle. Fog.9 mph93%30.21 "Hg1 mi
8:20 am43 °FDrizzle. Fog.5 mph93%30.21 "Hg1 mi
7:50 am41 °FDrizzle. Fog.5 mph100%30.21 "Hg1 mi
7:20 am41 °FDrizzle. Fog.5 mph100%30.21 "Hg1 mi
6:50 am41 °FDrizzle. Fog.5 mph100%30.21 "Hg1 mi
6:20 am41 °FDrizzle. Fog.6 mph100%30.21 "Hg1 mi
5:50 am41 °FDrizzle. Fog.7 mph100%30.21 "Hg1 mi
10:50 pm
Wed, Jan 18
41 °FLight rain. Fog.2 mph93%30.27 "Hg1 mi
9:50 pm41 °FLight rain. Fog.3 mph93%30.27 "Hg1 mi
9:20 pm41 °FDrizzle. Fog.5 mph93%30.27 "Hg1 mi
8:50 pm41 °FDrizzle. Fog.5 mph93%30.24 "Hg1 mi
8:20 pm39 °FDrizzle. Fog.6 mph100%30.24 "Hg1 mi
7:50 pm39 °FDrizzle. Fog.5 mph100%30.24 "Hg1 mi
7:20 pm39 °FDrizzle. Fog.5 mph100%30.24 "Hg2 mi
6:50 pm39 °FLight rain. Fog.6 mph100%30.24 "Hg2 mi
6:20 pm39 °FSprinkles. Fog.5 mph100%30.24 "Hg2 mi
5:20 pm39 °FSprinkles. Fog.2 mph100%30.24 "Hg2 mi
4:50 pm39 °FSprinkles. Fog.6 mph100%30.24 "Hg2 mi
Weather by CustomWeather, © 2017

See weather overviewHow to use our weather pages